Zurück zum Katalog

STARLINK-37034

AktivKommunikationVLEO
NORAD 68171·PAYLOAD·🇺🇸 United States

Gestartet Mar 14, 2026 von Vandenberg Space Force Base

Loading…

Nächste Überflüge (nächste 24 Stunden)

TLE

AktuellSource: CelesTrak SupGP

Epoche: Sep 14, 2026, 21:38 UTC

1 68171C 26050E   26257.90187500  .00007850  00000+0  23188-3 0  2579
2 68171  53.1568 103.9421 0001123  78.0246  75.9077 15.34392062    18

Verfolge STARLINK-37034 in Echtzeit mit AllMySat

Download on the App Store